SL-16 DEB, 43354

Orbit data source: Space-Track

SL-16 DEB, 43354 is space debris in LEO originally from a launch on Wed, 04 Sep 1996 UTC launched from the Tyuratam Missile And Space Complex (TTMTR). Debris objects in space refer to the collection of defunct objects orbiting the Earth. Examples of debris include non-operational satellites, rocket bodies, and fragments generated from explosions, collisions, or faulty payload assembly.

Loading next visibility...
Identifier
43354, 1996-051P
Orbit
LEO
Country
Flag of CISCIS
Related business
Manufacturer
Unknown
Mission
Spacecraft
Bus & Motor
Unknown
Mass
Unknown
Launch date (UTC)
1996-09-04 (30 years ago)
Launch vehicle
Unknown
Launch site
Tyuratam Missile And Space Complex (TTMTR)
Object type
Payload
Rocket body
Debris
Shape & HBR
Unknown shape, 0.1 m
Radar Cross Section
Small (<0.1 m²)

Expand to show TLE details & history
Last TLE update: 4 days ago

TLE from 4 days ago
0 SL-16 DEB
1 43354U 96051P   26090.75652496 -.00000010  00000-0  18575-4 0  9993
2 43354  71.1884 109.7868 0094499 220.4158 138.9920 14.14153521637461
Epoch: 2026-03-31T18:09Z
TLE epoch observation values (Epoch: 2026-03-31T18:09:23.756Z)
Latitude
-0.00003°
Longitude
8.30867°
Altitude
899.397 km
Speed
7.376 km/s
True Right ascension
07h 19m 08s
True Declination
0° 00' 00"
Sunlit
Object was in daylight at epoch
Visualization orbit readout
Latitude
Unknown
Longitude
Unknown
Altitude
Unknown
Speed
Unknown
Apparent Right ascension
Unknown
Apparent Declination
Unknown
Sunlit
N/A
Visualization observer readout
Local Sidereal Time
18:41:07
Azimuth
Unknown
Elevation
Unknown
Doppler factor
Unknown
Orbital elements
Apogee altitude
911.34 km
Perigee altitude
774.86 km
Semi-major axis
7,221.237 km
Eccentricity
0.00945
Inclination
71.1884°
RAAN
109.7868°
Arg. of periapsis
220.4158°
True anomaly
139.69625°
Mean anomaly
138.992°
Eccentric anomaly
139.34475°
Mean motion
3.53692 °/min
Orbital period
101.78 mins
BSTAR
0.000018575
Loading maneuver chart data...
Computing Atmospheric mass density...
Loading historical data...
Loading historical data...
Loading historical data...
Loading historical data...
Loading historical data...
Loading historical data...
Loading historical data...

Documentation

Showing up to 5 results
|